Home > Weather > Gary > Past weeks

Flag for USA Weather for the Past 2 Weeks in Gary, Indiana, USA

Now
47 °F

Light rain. Low clouds.


Feels Like: 41 °F
Forecast: 46 / 50 °F
Wind: 15 mph from East

Location: Lansing Municipal Airport

Current Time: Apr 30, 2016 at 2:35:48 PM

Latest Report: Apr 30, 2016 at 2:15 PM


Visibility: 5 mi

Pressure: 29.91 "Hg

Humidity: 92%

Dew Point: 45 °F

Location of GaryLocation

Historic Weather in Gary — Graph

°F

Gary Temperature Yesterday

Maximum temperature yesterday: 49 °F (at 3:55 PM)
Minimum temperature yesterday: 43 °F (at 9:35 PM)
Average temperature yesterday: 45 °F

High & Low Weather Summary for the Past Weeks

 TemperatureHumidityPressure
High82 °F (Apr 18, 4:15 PM)100% (Apr 21, 6:15 AM)30.41 "Hg (Apr 21, 6:15 AM)
Low39 °F (Apr 23, 5:55 AM)22% (Apr 18, 1:55 PM)29.62 "Hg (Apr 25, 6:55 PM)
Average55 °F69%30.05 "Hg
* Reported Apr 15 1:15 PM — Apr 30 1:35 PM, Gary, Weather by CustomWeather, © 2016

Note: Actual official high and low records may vary slightly from our data, if they occured in-between our weather recording intervals... More about our weather records

Advertising

Gary Weather History for the Previous 24 Hours

Scroll right to see more
 ConditionsComfort  
Time TempWeatherWind HumidityBarometerVisibility
1:35 PM
Sat, Apr 30
47 °FLight rain. Low clouds.15 mph92%29.94 "Hg5 mi
1:15 PM46 °FRain. Mostly cloudy.13 mph92%29.94 "Hg5 mi
12:55 PM46 °FLight rain. Overcast.13 mph92%29.96 "Hg7 mi
12:35 PM46 °FRain. Mostly cloudy.9 mph90%29.98 "Hg7 mi
12:15 PM46 °FLight rain. More clouds than sun.13 mph90%29.99 "Hg7 mi
11:55 AM46 °FRain. Overcast.9 mph90%29.99 "Hg7 mi
11:35 AM46 °FLight rain. Overcast.10 mph89%30.01 "Hg10 mi
11:15 AM46 °FLight rain. More clouds than sun.14 mph88%30.01 "Hg7 mi
10:55 AM46 °FLight rain. Overcast.10 mph89%30.02 "Hg7 mi
10:35 AM46 °FRain. Mostly cloudy.13 mph89%30.03 "Hg7 mi
10:15 AM47 °FRain. Mostly cloudy.9 mph85%30.03 "Hg7 mi
9:55 AM47 °FLight rain. More clouds than sun.9 mph81%30.04 "Hg10 mi
9:35 AM48 °FRain. Overcast.8 mph75%30.03 "Hg10 mi
9:15 AM48 °FMore clouds than sun.9 mph74%30.03 "Hg10 mi
8:55 AM48 °FOvercast.9 mph74%30.04 "Hg10 mi
8:35 AM48 °FMore clouds than sun.12 mph74%30.04 "Hg10 mi
8:15 AM48 °FPartly sunny.12 mph75%30.04 "Hg10 mi
7:55 AM48 °FScattered clouds.14 mph77%30.04 "Hg10 mi
7:35 AM48 °FPartly sunny.9 mph77%30.04 "Hg10 mi
7:15 AM47 °FOvercast.9 mph79%30.05 "Hg7 mi
6:55 AM47 °FOvercast.8 mph80%30.07 "Hg7 mi
6:35 AM47 °FScattered clouds.6 mph83%30.07 "Hg5 mi
6:15 AM47 °FScattered clouds.7 mph83%30.06 "Hg5 mi
5:55 AM47 °FSunny.7 mph84%30.05 "Hg7 mi
5:35 AM46 °FClear.8 mph86%30.05 "Hg7 mi
5:15 AM47 °FClear.7 mph86%30.05 "Hg7 mi
4:55 AM47 °FClear.8 mph86%30.04 "Hg7 mi
4:35 AM47 °FClear.9 mph87%30.05 "Hg7 mi
4:15 AM46 °FClear.7 mph89%30.05 "Hg7 mi
3:35 AM44 °FFog.6 mph93%30.05 "Hg5 mi
3:15 AM43 °FFog.5 mph93%30.05 "Hg5 mi
2:55 AM42 °FFog.3 mph93%30.05 "Hg5 mi
2:15 AM42 °FClear.5 mph92%30.06 "Hg7 mi
1:55 AM42 °FClear.6 mph92%30.06 "Hg7 mi
1:15 AM42 °FPassing clouds.6 mph90%30.08 "Hg7 mi
12:55 AM43 °FOvercast.7 mph89%30.09 "Hg10 mi
12:15 AM43 °FOvercast.5 mph86%30.11 "Hg10 mi
11:55 PM
Fri, Apr 29
43 °FOvercast.5 mph85%30.10 "Hg10 mi
11:35 PM43 °FMostly cloudy.5 mph84%30.10 "Hg10 mi
10:55 PM43 °FMostly cloudy.7 mph86%30.13 "Hg7 mi
10:35 PM43 °FMostly cloudy.7 mph85%30.13 "Hg10 mi
10:15 PM43 °FMostly cloudy.5 mph84%30.14 "Hg10 mi
9:35 PM43 °FMostly cloudy.8 mph85%30.14 "Hg10 mi
9:15 PM43 °FMostly cloudy.7 mph84%30.14 "Hg10 mi
8:55 PM43 °FMostly cloudy.8 mph85%30.14 "Hg7 mi
8:15 PM43 °FFog.5 mph86%30.15 "Hg5 mi
7:55 PM43 °FFog.6 mph84%30.14 "Hg5 mi
7:35 PM43 °FFog.9 mph84%30.14 "Hg4 mi
6:55 PM44 °FMore clouds than sun.9 mph83%30.13 "Hg5 mi
6:15 PM45 °FMore clouds than sun.8 mph81%30.12 "Hg5 mi
5:55 PM46 °FOvercast.9 mph79%30.12 "Hg5 mi
5:35 PM47 °FMostly cloudy.7 mph77%30.13 "Hg7 mi
5:15 PM47 °FBroken clouds.7 mph75%30.12 "Hg7 mi
4:55 PM49 °FScattered clouds.8 mph73%30.11 "Hg7 mi
4:15 PM48 °FPartly sunny.13 mph74%30.11 "Hg10 mi
3:55 PM49 °FBroken clouds.9 mph73%30.11 "Hg10 mi
3:15 PM48 °FMore clouds than sun.7 mph74%30.12 "Hg10 mi
2:55 PM48 °FMore clouds than sun.8 mph75%30.11 "Hg10 mi
2:35 PM48 °FMore clouds than sun.8 mph74%30.11 "Hg10 mi
2:15 PM47 °FMore clouds than sun.10 mph75%30.11 "Hg10 mi
Weather by CustomWeather, © 2016

See weather overviewHow to use our weather pages